OBJECT A, 55009

Orbit data source: Space-Track

You're viewing an Uncataloged Satellite

Recently launched and/or uncataloged satellites may have evolving metadata. Metadata may include but not limited to: Owner, Maufacturer, Bus, Motor, and Mission.

OBJECT A, 55009 is a satellite in SSO that was launched on Tue, 03 Jan 2023 UTC via an FALCON 9 launch vehicle from the Air Force Eastern Test Range (AFETR). Unknown objects in Earth's orbit typically refer to objects detected orbiting the Earth but have not yet been identified or cataloged. These objects could be anything from previously untracked satellites, spent rocket stages, debris from satellite collisions, or even natural meteoroids temporarily captured by Earth's gravity.

Loading next visibility...
Identifier
55009, 2023-001A
Orbit
SSO
Country
Flag of TBDTBD
Related business
Flag of PLScanway Space (PL)
Manufacturer
German Orb Sys
Mission
Operational Commercial Imaging
Bus & Motor
CUBESAT 6U, Unknown motor
Mass
10 kg wet, ~10 kg dry
Launch date (UTC)
2023-01-03 (3 years ago)
Launch vehicle
FALCON 9
Launch site
Air Force Eastern Test Range (AFETR)
Object type
Unknown
Shape & HBR
Box + 2 Pan, 0.1 m
Radar Cross Section
0.080 m², Medium (>0.1 m² and < 1m²)

Expand to show TLE details & history
Last TLE update: 7 hours ago

TLE from 7 hours ago
0 OBJECT A
1 55009U 23001A   25287.95811681  .00014405  00000-0  43133-3 0  9999
2 55009  97.3551 347.2844 0005206 278.0422  82.0231 15.34616990154517
Epoch: 2025-10-14T22:59Z
TLE epoch observation values (Epoch: 2025-10-14T22:59:41.292Z)
Latitude
0.00005°
Longitude
-21.37674°
Altitude
464.677 km
Speed
7.634 km/s
True Right ascension
23h 09m 08s
True Declination
0° 00' 00"
Sunlit
Object was in full shadow at epoch
Visualization orbit readout
Latitude
Unknown
Longitude
Unknown
Altitude
Unknown
Speed
Unknown
Apparent Right ascension
Unknown
Apparent Declination
Unknown
Sunlit
N/A
Visualization observer readout
Local Sidereal Time
00:13:05
Azimuth
Unknown
Elevation
Unknown
Doppler factor
Unknown
Orbital elements
Apogee altitude
462.562 km
Perigee altitude
455.443 km
Semi-major axis
6,837.14 km
Eccentricity
0.00052
Inclination
97.3551°
RAAN
347.2844°
Arg. of periapsis
278.0422°
True anomaly
82.08218°
Mean anomaly
82.0231°
Eccentric anomaly
82.05264°
Mean motion
3.83912 °/min
Orbital period
93.77 mins
BSTAR
0.00043133
Loading maneuver chart data...
Computing Atmospheric mass density...

Documentation

Showing up to 5 results
|